Location: Ferchesar
(52.6477°N, 12.4298°E)
Time: 19:52:52
(UTC+01:00)

BUGSAT 1 - Pass Details

Date: 26 October 2021
Orbit: 558 x 601 km, 98.1° (Epoch: 28 November)

Event Time Altitude Azimuth Distance (km) Brightness Sun altitude
Rises 07:16:37 0° 7° (N) 2,760 ? -6.6°
Reaches altitude 10° 07:18:58 10° 356° (N) 1,861 ? -6.2°
Maximum altitude 07:22:24 28° 297° (WNW) 1,073 ? -5.7°
Drops below altitude 10° 07:25:51 10° 237° (WSW) 1,859 ? -5.2°
Sets 07:28:11 0° 226° (SW) 2,757 ? -4.9°
